QPF
0.04 0.05 0.05 0.05 0.05 0.06 0.07 0.09 0.09 0.07 0.05 0.04 0.03 0.03 0.03 0.02 0.02 0.02 0.02 0.02 0.02 0.02 0.01 0.01 0.01 0.01 0.01 0.01 0.01 0.01 0.02 0.02 0.03 0.03 0.04 0.05 0.05 0.05
0.06 0.06 0.06 0.07 0.07 0.06 0.06 0.05 0.04 0.05 0.05 0.04 0.03 0.02 0.02 0.02 0.02 0.02 0.02 0.02 0.02 0.02 0.01 0.01 0.01 0.01 0.02 0.02 0.02 0.02 0.02 0.03 0.04 0.04 0.05 0.05 0.05 0.04
0.05 0.06 0.08 0.09 0.07 0.05 0.05 0.04 0.03 0.05 0.06 0.04 0.03 0.02 0.01 0.01 0.01 0.01 0.01 0.02 0.01 0.01 0.01 0.00 0.00 0.00 0.01 0.02 0.03 0.04 0.04 0.04 0.04 0.04 0.04 0.05 0.05 0.05
0.04 0.05 0.05 0.05 0.05 0.05 0.05 0.05 0.04 0.05 0.06 0.05 0.03 0.02 0.01 0.01 0.01 0.01 0.01 0.01 0.01 0.00 0.00 0.00 0.00 0.00 0.01 0.02 0.02 0.03 0.04 0.04 0.03 0.03 0.03 0.03 0.04 0.04
0.04 0.04 0.03 0.03 0.03 0.04 0.03 0.04 0.04 0.04 0.04 0.03 0.02 0.02 0.02 0.01 0.01 0.01 0.00 0.00 0.00 0.00 0.00 0.00 0.01 0.01 0.02 0.02 0.02 0.03 0.04 0.04 0.04 0.03 0.03 0.03 0.03 0.04
0.03 0.03 0.02 0.02 0.02 0.03 0.03 0.03 0.04 0.04 0.03 0.02 0.01 0.01 0.01 0.01 0.01 0.01 0.01 0.01 0.01 0.01 0.01 0.01 0.00 0.01 0.01 0.01 0.01 0.02 0.02 0.02 0.02 0.03 0.03 0.03 0.04 0.05
0.03 0.03 0.02 0.03 0.03 0.03 0.03 0.03 0.02 0.02 0.02 0.02 0.02 0.01 0.01 0.01 0.01 0.01 0.01 0.01 0.01 0.01 0.01 0.01 0.01 0.01 0.01 0.01 0.00 0.00 0.01 0.01 0.01 0.01 0.01 0.02 0.03 0.04
0.04 0.05 0.05 0.04 0.04 0.04 0.03 0.03 0.02 0.02 0.02 0.02 0.01 0.01 0.01 0.01 0.01 0.01 0.01 0.01 0.00 0.01 0.00 0.00 0.01 0.00 0.01 0.01 0.01 0.01 0.01 0.01 0.01 0.01 0.01 0.01 0.01 0.02
0.06 0.06 0.07 0.06 0.06 0.04 0.04 0.03 0.03 0.02 0.02 0.01 0.01 0.01 0.01 0.01 0.01 0.01 0.01 0.00 0.01 0.01 0.00 0.00 0.00 0.00 0.00 0.01 0.01 0.02 0.01 0.01 0.01 0.01 0.01 0.02 0.02 0.02
0.03 0.03 0.03 0.03 0.03 0.04 0.05 0.05 0.04 0.03 0.02 0.02 0.01 0.01 0.01 0.01 0.01 0.01 0.01 0.01 0.00 0.00 0.00 0.00 0.00 0.01 0.01 0.01 0.01 0.01 0.01 0.01 0.01 0.01 0.02 0.02 0.02 0.03
0.01 0.01 0.01 0.01 0.02 0.03 0.05 0.05 0.05 0.05 0.04 0.03 0.03 0.03 0.03 0.03 0.02 0.01 0.01 0.01 0.01 0.01 0.01 0.01 0.00 0.01 0.01 0.01 0.01 0.01 0.01 0.02 0.02 0.02 0.02 0.02 0.02 0.02
0.02 0.01 0.01 0.01 0.02 0.03 0.03 0.03 0.04 0.04 0.04 0.03 0.03 0.02 0.02 0.02 0.02 0.02 0.02 0.01 0.01 0.01 0.01 0.01 0.01 0.01 0.01 0.01 0.01 0.01 0.01 0.01 0.01 0.02 0.02 0.02 0.02 0.02
0.01 0.01 0.01 0.02 0.03 0.03 0.03 0.03 0.03 0.03 0.04 0.04 0.03 0.03 0.03 0.03 0.02 0.02 0.02 0.03 0.02 0.02 0.01 0.01 0.01 0.01 0.01 0.01 0.01 0.01 0.01 0.01 0.01 0.01 0.01 0.01 0.01 0.01
0.03 0.03 0.03 0.03 0.03 0.04 0.04 0.03 0.04 0.03 0.03 0.03 0.03 0.02 0.02 0.03 0.04 0.03 0.03 0.02 0.01 0.01 0.01 0.01 0.01 0.01 0.01 0.01 0.01 0.01 0.00 0.00 0.00 0.00 0.01 0.01 0.01 0.01
0.04 0.03 0.04 0.04 0.04 0.03 0.05 0.05 0.04 0.02 0.02 0.02 0.02 0.03 0.03 0.04 0.05 0.04 0.03 0.03 0.01 0.00 0.00 0.00 0.00 0.00 0.00 0.00 0.00 0.00 0.01 0.01 0.00 0.00 0.00 0.01 0.01 0.01
0.05 0.04 0.04 0.05 0.04 0.04 0.03 0.04 0.05 0.03 0.02 0.02 0.02 0.02 0.02 0.02 0.03 0.02 0.01 0.01 0.01 0.01 0.00 0.00 0.00 0.00 0.00 0.00 0.00 0.00 0.00 0.01 0.00 0.00 0.01 0.01 0.01 0.01
0.04 0.03 0.02 0.03 0.04 0.04 0.05 0.04 0.04 0.04 0.03 0.02 0.01 0.01 0.01 0.00 0.01 0.02 0.01 0.01 0.01 0.01 0.01 0.01 0.01 0.00 0.00 0.00 0.01 0.01 0.01 0.01 0.01 0.01 0.01 0.01 0.01 0.01
0.02 0.02 0.02 0.03 0.04 0.06 0.06 0.04 0.02 0.02 0.02 0.01 0.01 0.01 0.01 0.00 0.01 0.01 0.01 0.01 0.00 0.00 0.01 0.01 0.01 0.00 0.00 0.00 0.00 0.01 0.01 0.01 0.01 0.01 0.02 0.02 0.01 0.01
0.01 0.01 0.04 0.05 0.05 0.07 0.08 0.05 0.02 0.01 0.02 0.02 0.01 0.00 0.00 0.00 0.01 0.01 0.01 0.01 0.01 0.01 0.01 0.01 0.00 0.00 0.01 0.01 0.00 0.01 0.01 0.02 0.02 0.01 0.01 0.01 0.01 0.01
0.01 0.01 0.03 0.05 0.07 0.08 0.06 0.04 0.03 0.02 0.02 0.02 0.01 0.01 0.01 0.00 0.00 0.01 0.01 0.01 0.02 0.02 0.02 0.01 0.01 0.01 0.01 0.01 0.01 0.01 0.01 0.02 0.02 0.02 0.01 0.01 0.01 0.01
0.01 0.02 0.03 0.04 0.05 0.05 0.05 0.05 0.04 0.03 0.02 0.02 0.01 0.01 0.01 0.00 0.00 0.01 0.01 0.01 0.02 0.02 0.02 0.01 0.01 0.02 0.01 0.01 0.02 0.01 0.02 0.02 0.02 0.01 0.01 0.01 0.01 0.02
0.02 0.02 0.02 0.03 0.03 0.03 0.03 0.04 0.04 0.03 0.02 0.02 0.01 0.01 0.01 0.01 0.01 0.01 0.01 0.01 0.01 0.01 0.01 0.01 0.02 0.02 0.02 0.02 0.02 0.02 0.02 0.01 0.01 0.02 0.02 0.02 0.01 0.02
0.01 0.02 0.02 0.03 0.03 0.03 0.03 0.03 0.04 0.03 0.03 0.02 0.02 0.01 0.01 0.01 0.01 0.01 0.01 0.01 0.02 0.02 0.02 0.02 0.03 0.02 0.02 0.02 0.02 0.02 0.02 0.02 0.02 0.02 0.02 0.02 0.02 0.02
MSLP
1009.70 1009.37 1009.16 1009.09 1009.17 1009.39 1009.74 1010.18 1010.68 1011.23 1011.79 1012.34 1012.89 1013.41 1013.91 1014.40 1014.89 1015.38 1015.88 1016.41 1016.96 1017.53 1018.11 1018.68 1019.22 1019.73 1020.18 1020.58 1020.93 1021.23 1021.51 1021.78 1022.05 1022.32 1022.61 1022.89 1023.16 1023.40
1008.91 1008.57 1008.31 1008.18 1008.19 1008.35 1008.66 1009.09 1009.62 1010.22 1010.86 1011.52 1012.16 1012.77 1013.36 1013.91 1014.43 1014.94 1015.45 1015.97 1016.51 1017.08 1017.67 1018.25 1018.83 1019.37 1019.87 1020.31 1020.70 1021.05 1021.36 1021.66 1021.95 1022.25 1022.56 1022.87 1023.18 1023.45
1008.06 1007.72 1007.45 1007.28 1007.24 1007.36 1007.63 1008.05 1008.60 1009.25 1009.97 1010.71 1011.46 1012.17 1012.84 1013.46 1014.03 1014.56 1015.08 1015.61 1016.14 1016.70 1017.28 1017.87 1018.45 1019.01 1019.53 1020.00 1020.42 1020.80 1021.13 1021.45 1021.77 1022.09 1022.43 1022.76 1023.09 1023.39
1007.19 1006.89 1006.63 1006.44 1006.37 1006.45 1006.69 1007.09 1007.65 1008.34 1009.11 1009.93 1010.76 1011.57 1012.32 1013.01 1013.64 1014.21 1014.75 1015.28 1015.81 1016.36 1016.92 1017.50 1018.08 1018.64 1019.17 1019.65 1020.08 1020.46 1020.81 1021.14 1021.47 1021.81 1022.16 1022.52 1022.87 1023.19
1006.35 1006.10 1005.86 1005.68 1005.59 1005.64 1005.86 1006.24 1006.79 1007.48 1008.28 1009.15 1010.05 1010.92 1011.75 1012.51 1013.19 1013.81 1014.38 1014.92 1015.46 1016.00 1016.55 1017.12 1017.69 1018.23 1018.75 1019.23 1019.65 1020.03 1020.39 1020.72 1021.06 1021.40 1021.77 1022.14 1022.52 1022.87
1005.52 1005.34 1005.15 1004.98 1004.90 1004.93 1005.12 1005.47 1005.99 1006.66 1007.46 1008.35 1009.27 1010.19 1011.07 1011.88 1012.62 1013.29 1013.90 1014.47 1015.02 1015.56 1016.12 1016.67 1017.22 1017.76 1018.26 1018.72 1019.14 1019.52 1019.86 1020.20 1020.54 1020.89 1021.27 1021.66 1022.05 1022.43
1004.68 1004.56 1004.42 1004.30 1004.23 1004.26 1004.42 1004.75 1005.23 1005.87 1006.64 1007.51 1008.43 1009.36 1010.27 1011.12 1011.90 1012.61 1013.26 1013.86 1014.44 1015.00 1015.56 1016.11 1016.66 1017.18 1017.67 1018.13 1018.54 1018.91 1019.26 1019.61 1019.95 1020.32 1020.70 1021.11 1021.53 1021.93
1003.77 1003.71 1003.63 1003.56 1003.53 1003.57 1003.73 1004.03 1004.48 1005.08 1005.81 1006.64 1007.54 1008.46 1009.37 1010.23 1011.04 1011.79 1012.47 1013.11 1013.71 1014.29 1014.86 1015.42 1015.96 1016.49 1016.98 1017.44 1017.86 1018.25 1018.61 1018.97 1019.33 1019.72 1020.12 1020.55 1020.98 1021.40
1002.74 1002.74 1002.72 1002.71 1002.73 1002.82 1003.00 1003.30 1003.73 1004.29 1004.98 1005.77 1006.63 1007.52 1008.42 1009.29 1010.11 1010.87 1011.58 1012.25 1012.87 1013.47 1014.04 1014.61 1015.16 1015.69 1016.20 1016.67 1017.12 1017.53 1017.93 1018.32 1018.72 1019.12 1019.55 1019.99 1020.43 1020.87
1001.61 1001.64 1001.68 1001.75 1001.84 1001.99 1002.22 1002.54 1002.98 1003.53 1004.18 1004.94 1005.76 1006.63 1007.50 1008.36 1009.18 1009.95 1010.67 1011.35 1011.98 1012.58 1013.16 1013.73 1014.29 1014.83 1015.35 1015.85 1016.33 1016.79 1017.23 1017.67 1018.10 1018.55 1019.00 1019.45 1019.90 1020.33
1000.41 1000.46 1000.57 1000.71 1000.89 1001.12 1001.42 1001.79 1002.25 1002.80 1003.45 1004.18 1004.98 1005.82 1006.68 1007.52 1008.34 1009.11 1009.83 1010.50 1011.13 1011.72 1012.30 1012.86 1013.41 1013.95 1014.49 1015.02 1015.54 1016.04 1016.54 1017.02 1017.50 1017.98 1018.45 1018.91 1019.35 1019.77
999.27 999.34 999.48 999.70 999.96 1000.27 1000.64 1001.07 1001.57 1002.14 1002.80 1003.52 1004.31 1005.13 1005.98 1006.81 1007.62 1008.39 1009.10 1009.77 1010.38 1010.96 1011.51 1012.05 1012.58 1013.12 1013.66 1014.21 1014.76 1015.31 1015.85 1016.37 1016.89 1017.39 1017.87 1018.33 1018.75 1019.15
998.36 998.41 998.58 998.84 999.16 999.54 999.96 1000.44 1000.96 1001.55 1002.21 1002.93 1003.71 1004.53 1005.37 1006.21 1007.02 1007.79 1008.51 1009.16 1009.76 1010.31 1010.84 1011.35 1011.86 1012.38 1012.91 1013.46 1014.03 1014.60 1015.16 1015.72 1016.26 1016.77 1017.25 1017.68 1018.08 1018.44
997.81 997.84 998.01 998.28 998.62 999.01 999.45 999.92 1000.44 1001.01 1001.65 1002.36 1003.12 1003.94 1004.79 1005.64 1006.47 1007.26 1007.99 1008.65 1009.25 1009.79 1010.30 1010.78 1011.26 1011.75 1012.26 1012.80 1013.36 1013.93 1014.50 1015.06 1015.60 1016.10 1016.56 1016.97 1017.32 1017.63
997.78 997.76 997.89 998.12 998.42 998.76 999.14 999.55 1000.01 1000.52 1001.10 1001.76 1002.49 1003.30 1004.15 1005.02 1005.88 1006.71 1007.48 1008.17 1008.79 1009.34 1009.84 1010.31 1010.76 1011.22 1011.70 1012.22 1012.75 1013.30 1013.86 1014.40 1014.92 1015.40 1015.82 1016.19 1016.49 1016.75
998.34 998.25 998.30 998.43 998.63 998.85 999.09 999.37 999.68 1000.06 1000.53 1001.10 1001.77 1002.54 1003.39 1004.28 1005.18 1006.06 1006.89 1007.64 1008.31 1008.89 1009.41 1009.88 1010.33 1010.77 1011.22 1011.70 1012.20 1012.72 1013.25 1013.76 1014.24 1014.68 1015.06 1015.38 1015.64 1015.85
999.50 999.33 999.26 999.25 999.27 999.31 999.34 999.40 999.51 999.69 999.98 1000.40 1000.97 1001.67 1002.49 1003.40 1004.34 1005.28 1006.18 1007.01 1007.74 1008.39 1008.95 1009.45 1009.90 1010.34 1010.78 1011.23 1011.69 1012.17 1012.66 1013.12 1013.56 1013.96 1014.30 1014.58 1014.80 1014.98
1001.21 1000.94 1000.74 1000.56 1000.36 1000.15 999.92 999.71 999.54 999.47 999.54 999.77 1000.19 1000.79 1001.55 1002.43 1003.39 1004.38 1005.35 1006.25 1007.07 1007.79 1008.41 1008.96 1009.44 1009.88 1010.31 1010.74 1011.18 1011.63 1012.07 1012.50 1012.90 1013.26 1013.57 1013.82 1014.02 1014.18
1003.33 1002.98 1002.63 1002.26 1001.84 1001.36 1000.85 1000.34 999.88 999.53 999.34 999.35 999.58 1000.04 1000.71 1001.54 1002.48 1003.48 1004.49 1005.45 1006.33 1007.11 1007.79 1008.38 1008.90 1009.36 1009.79 1010.21 1010.63 1011.06 1011.47 1011.87 1012.25 1012.59 1012.88 1013.12 1013.31 1013.48
1005.70 1005.27 1004.81 1004.27 1003.63 1002.91 1002.13 1001.34 1000.60 999.98 999.53 999.31 999.34 999.63 1000.16 1000.90 1001.77 1002.74 1003.74 1004.71 1005.61 1006.42 1007.14 1007.75 1008.29 1008.76 1009.20 1009.62 1010.03 1010.43 1010.83 1011.22 1011.59 1011.92 1012.21 1012.46 1012.67 1012.85
1008.13 1007.66 1007.11 1006.44 1005.64 1004.73 1003.74 1002.73 1001.77 1000.92 1000.24 999.81 999.63 999.74 1000.11 1000.70 1001.46 1002.33 1003.25 1004.16 1005.03 1005.82 1006.51 1007.12 1007.65 1008.12 1008.55 1008.96 1009.36 1009.76 1010.15 1010.54 1010.90 1011.24 1011.55 1011.82 1012.05 1012.27
1010.44 1009.96 1009.37 1008.64 1007.75 1006.73 1005.62 1004.47 1003.36 1002.35 1001.52 1000.91 1000.56 1000.48 1000.66 1001.07 1001.66 1002.37 1003.15 1003.94 1004.70 1005.40 1006.02 1006.57 1007.06 1007.49 1007.89 1008.28 1008.67 1009.05 1009.44 1009.83 1010.20 1010.55 1010.88 1011.17 1011.43 1011.67
1012.46 1012.01 1011.43 1010.70 1009.81 1008.78 1007.64 1006.46 1005.31 1004.23 1003.31 1002.58 1002.09 1001.85 1001.85 1002.07 1002.45 1002.96 1003.53 1004.13 1004.72 1005.26 1005.76 1006.20 1006.59 1006.96 1007.30 1007.65 1008.01 1008.38 1008.75 1009.14 1009.51 1009.87 1010.21 1010.51 1010.79 1011.04
Thickness
5700 5699 5698 5698 5697 5696 5695 5694 5689 5684 5683 5684 5686 5687 5686 5686 5686 5685 5685 5685 5684 5684 5683 5682 5681 5680 5679 5677 5675 5674 5673 5672 5670 5670 5669 5668 5667 5666
5698 5696 5696 5695 5694 5694 5693 5692 5690 5686 5681 5682 5682 5683 5683 5683 5682 5681 5681 5681 5680 5680 5679 5678 5677 5676 5675 5673 5672 5670 5669 5668 5667 5666 5665 5664 5663 5662
5695 5694 5693 5692 5691 5691 5690 5688 5686 5684 5680 5679 5678 5679 5678 5678 5678 5678 5677 5676 5676 5675 5674 5674 5673 5672 5671 5669 5668 5666 5665 5663 5662 5661 5661 5660 5659 5658
5691 5690 5689 5689 5688 5687 5686 5684 5683 5681 5678 5675 5675 5674 5674 5674 5674 5673 5672 5672 5671 5671 5670 5669 5668 5667 5665 5664 5663 5661 5660 5659 5658 5657 5656 5655 5655 5654
5688 5687 5686 5685 5684 5683 5682 5681 5679 5678 5676 5673 5671 5670 5669 5669 5668 5668 5667 5666 5666 5666 5665 5663 5662 5661 5660 5658 5657 5656 5655 5654 5653 5653 5652 5651 5650 5649
5685 5684 5683 5682 5681 5680 5679 5677 5676 5674 5671 5669 5667 5666 5664 5663 5662 5661 5661 5660 5660 5660 5659 5658 5657 5656 5654 5653 5651 5650 5649 5648 5648 5647 5647 5646 5645 5644
5682 5681 5680 5680 5679 5678 5677 5675 5673 5670 5668 5665 5663 5662 5660 5658 5657 5656 5655 5654 5653 5653 5652 5652 5651 5650 5648 5647 5646 5645 5644 5643 5642 5641 5641 5640 5640 5639
5677 5676 5676 5675 5675 5674 5673 5672 5671 5668 5665 5663 5660 5659 5657 5655 5653 5652 5649 5648 5648 5647 5646 5646 5645 5644 5642 5641 5640 5639 5638 5637 5636 5636 5635 5634 5633 5632
5673 5672 5671 5671 5670 5670 5669 5668 5667 5666 5664 5662 5659 5657 5655 5653 5650 5648 5645 5644 5643 5643 5640 5640 5639 5638 5636 5635 5634 5633 5632 5631 5630 5629 5628 5627 5626 5625
5668 5667 5666 5666 5666 5665 5664 5663 5661 5660 5659 5658 5657 5655 5653 5650 5648 5645 5642 5640 5638 5636 5635 5633 5633 5632 5631 5629 5628 5627 5626 5624 5623 5622 5621 5619 5618 5617
5664 5662 5662 5661 5660 5660 5659 5657 5656 5655 5654 5653 5651 5650 5648 5646 5643 5640 5636 5635 5633 5631 5628 5627 5627 5625 5624 5623 5622 5620 5619 5617 5615 5614 5613 5612 5610 5609
5659 5657 5657 5656 5655 5654 5653 5651 5649 5648 5647 5646 5644 5643 5642 5640 5637 5635 5632 5630 5628 5626 5624 5621 5620 5618 5618 5617 5615 5613 5612 5610 5608 5607 5605 5604 5603 5602
5654 5653 5652 5651 5649 5648 5647 5646 5644 5643 5641 5639 5638 5636 5635 5633 5631 5629 5627 5625 5623 5621 5620 5616 5614 5612 5610 5609 5608 5606 5605 5603 5601 5600 5598 5597 5595 5594
5649 5648 5647 5645 5643 5641 5640 5639 5638 5636 5635 5632 5631 5629 5628 5627 5625 5623 5621 5619 5618 5616 5615 5612 5609 5607 5605 5603 5603 5601 5598 5597 5595 5594 5592 5590 5589 5587
5644 5643 5641 5639 5637 5635 5633 5632 5631 5629 5627 5625 5624 5622 5622 5621 5619 5617 5616 5614 5612 5610 5609 5606 5604 5602 5599 5598 5597 5596 5594 5592 5590 5588 5586 5585 5584 5582
5638 5636 5634 5632 5630 5628 5627 5625 5623 5621 5619 5618 5617 5616 5615 5614 5613 5611 5609 5608 5606 5604 5602 5600 5598 5596 5594 5593 5591 5590 5588 5587 5586 5583 5581 5580 5579 5577
5631 5629 5628 5625 5624 5621 5619 5617 5615 5614 5612 5611 5610 5609 5608 5607 5606 5605 5603 5601 5599 5597 5596 5594 5592 5590 5589 5587 5586 5585 5584 5582 5581 5579 5576 5576 5574 5572
5625 5624 5621 5619 5617 5615 5612 5610 5609 5608 5606 5605 5604 5603 5602 5601 5599 5598 5596 5594 5592 5591 5590 5588 5587 5585 5584 5583 5580 5580 5579 5577 5576 5573 5572 5571 5571 5569
5619 5617 5615 5612 5610 5608 5606 5604 5603 5601 5600 5599 5598 5597 5596 5594 5593 5591 5590 5588 5586 5585 5584 5582 5581 5580 5579 5579 5579 5575 5574 5572 5570 5569 5567 5566 5566 5565
5612 5610 5608 5606 5603 5601 5599 5598 5597 5596 5594 5593 5592 5591 5589 5588 5586 5585 5583 5581 5580 5579 5578 5576 5575 5573 5573 5573 5573 5571 5569 5567 5566 5565 5563 5561 5560 5559
5606 5603 5601 5599 5597 5594 5593 5591 5590 5590 5589 5588 5586 5585 5584 5582 5581 5579 5577 5575 5573 5573 5572 5572 5570 5568 5567 5566 5566 5566 5565 5563 5562 5560 5558 5557 5556 5555
5599 5597 5594 5592 5590 5588 5587 5585 5584 5583 5582 5582 5581 5580 5578 5577 5575 5573 5571 5570 5568 5567 5567 5566 5564 5563 5562 5561 5562 5562 5560 5559 5556 5554 5552 5551 5550 5550
5592 5590 5588 5585 5583 5582 5580 5579 5578 5577 5576 5575 5574 5573 5573 5571 5570 5568 5567 5565 5563 5562 5561 5560 5559 5558 5557 5556 5556 5556 5555 5554 5552 5550 5548 5546 5544 5543